TimeEDT,TemperatureF,Dew PointF,Humidity,Sea Level PressureIn,VisibilityMPH,Wind Direction,Wind SpeedMPH,Gust SpeedMPH,PrecipitationIn,Events,Conditions,WindDirDegrees,DateUTC
12:00 AM,69.8,64.4,83,29.97,15.0,SE,3.5,-,N/A,,Mostly Cloudy,130,2013-07-22 04:00:00
1:00 AM,69.8,64.4,83,29.96,15.0,East,3.5,-,N/A,,Mostly Cloudy,90,2013-07-22 05:00:00
2:00 AM,69,65,83,29.96,15,ENE,3.5,,,,Mostly Cloudy,70,2013-07-22 06:00:00
2:00 AM,69.8,64.4,83,29.96,15.0,ENE,3.5,-,N/A,,Mostly Cloudy,70,2013-07-22 06:00:00
3:00 AM,69.8,64.4,83,29.94,15.0,East,5.8,-,N/A,,Overcast,90,2013-07-22 07:00:00
4:00 AM,69.8,64.4,83,29.93,15.0,East,3.5,-,N/A,,Overcast,80,2013-07-22 08:00:00
5:00 AM,68.0,64.4,88,29.91,15.0,East,4.6,-,N/A,,Mostly Cloudy,90,2013-07-22 09:00:00
6:00 AM,68.0,64.4,88,29.92,15.0,Calm,Calm,-,N/A,,Mostly Cloudy,0,2013-07-22 10:00:00
7:00 AM,68.0,64.4,88,29.92,15.0,East,2.3,-,N/A,,Mostly Cloudy,90,2013-07-22 11:00:00
7:42 AM,-9999,-9999,N/A,-9999,15.0,ENE,3.5,-,N/A,Rain,Light Rain Showers,70,2013-07-22 11:42:00
8:00 AM,69,65,84,29.91,15,East,3.5,,,Rain,Light Rain Showers,90,2013-07-22 12:00:00
8:00 AM,69.8,66.2,88,29.91,15.0,East,3.5,-,N/A,Rain,Light Rain Showers,90,2013-07-22 12:00:00
8:25 AM,-9999,-9999,N/A,-9999,15.0,ESE,3.5,-,N/A,,Mostly Cloudy,110,2013-07-22 12:25:00
9:00 AM,71.6,68.0,88,29.91,15.0,SE,2.3,-,N/A,,Mostly Cloudy,130,2013-07-22 13:00:00
10:00 AM,73.4,68.0,83,29.89,15.0,ESE,9.2,-,N/A,,Overcast,120,2013-07-22 14:00:00
10:47 AM,-9999,-9999,N/A,-9999,15.0,SE,8.1,-,N/A,Rain,Light Rain Showers,130,2013-07-22 14:47:00
11:00 AM,73.4,69.8,88,29.89,15.0,SE,8.1,-,N/A,Rain,Light Rain Showers,130,2013-07-22 15:00:00
12:00 PM,75.2,69.8,83,29.89,15.0,SE,6.9,-,N/A,Rain,Light Rain Showers,140,2013-07-22 16:00:00
1:00 PM,75.2,68.0,78,29.89,15.0,SSE,5.8,-,N/A,Rain,Light Rain Showers,160,2013-07-22 17:00:00
2:00 PM,74,67,73,29.88,15,SSE,3.5,,,Rain,Light Rain Showers,160,2013-07-22 18:00:00
2:00 PM,73.4,68.0,83,29.88,15.0,SSE,2.3,-,N/A,Rain,Light Rain Showers,160,2013-07-22 18:00:00
3:00 PM,75.2,68.0,78,29.86,15.0,ESE,5.8,-,N/A,Rain,Light Rain Showers,110,2013-07-22 19:00:00
3:25 PM,-9999,-9999,N/A,-9999,15.0,ESE,5.8,-,N/A,,Overcast,120,2013-07-22 19:25:00
4:00 PM,77.0,62.6,61,29.84,15.0,South,4.6,-,N/A,,Mostly Cloudy,170,2013-07-22 20:00:00
5:00 PM,77.0,66.2,69,29.83,15.0,Calm,Calm,-,N/A,,Mostly Cloudy,0,2013-07-22 21:00:00
6:00 PM,78.8,62.6,57,29.81,15.0,East,3.5,-,N/A,,Mostly Cloudy,90,2013-07-22 22:00:00
7:00 PM,78.8,64.4,61,29.79,15.0,East,5.8,-,N/A,,Partly Cloudy,100,2013-07-22 23:00:00
8:00 PM,77,67,65,29.79,15,East,4.6,,,,Partly Cloudy,80,2013-07-23 00:00:00
8:00 PM,77.0,68.0,74,29.79,15.0,East,3.5,-,N/A,,Partly Cloudy,90,2013-07-23 00:00:00
9:00 PM,73.4,66.2,78,29.78,10.0,SE,4.6,-,N/A,,Partly Cloudy,140,2013-07-23 01:00:00
10:00 PM,71.6,68.0,88,29.80,10.0,East,4.6,-,N/A,,Clear,90,2013-07-23 02:00:00
11:00 PM,69.8,66.2,88,29.80,12.0,SSE,3.5,-,N/A,,Clear,160,2013-07-23 03:00:00